Location: Altleiningen
(49.5078°N, 8.0741°E)
Time: 22:23:58
(UTC+00:00)

Cosmos 1633 Rocket - Pass Details

Date: 03 March 2021
Orbit: 606 x 624 km, 82.5° (Epoch: 13 April)

Event Time Altitude Azimuth Distance (km) Brightness Sun altitude
Rises 17:56:40 0° 183° (S) 2,891 6.6 -7.7°
Reaches altitude 10° 17:58:53 10° 182° (S) 1,991 5.7 -8.1°
Maximum altitude 18:03:17 75° 98° (E) 652 3.0 -8.8°
Drops below altitude 10° 18:07:44 10° 13° (NNE) 2,010 5.6 -9.5°
Sets 18:09:59 0° 12° (NNE) 2,921 6.4 -9.9°
